| time (UTC) | temp F | wind direction | speed MPH | gust MPH | rain 1hr in | rain 24hr in | rain mn in | humidity % | barometer mb |
| 20260507223111 | 74 | 225 | 2.0 | 3.0 | 0.00 | 0.00 | 0.39 | 92 | 1009.0 |
| 20260507222612 | 74 | 176 | 1.0 | 1.0 | 0.00 | 0.00 | 0.39 | 92 | 1009.0 |
| 20260507222111 | 74 | 213 | 1.0 | 1.0 | 0.00 | 0.00 | 0.39 | 92 | 1010.0 |
| 20260507221611 | 74 | 227 | 1.0 | 1.0 | 0.00 | 0.00 | 0.39 | 92 | 1009.0 |
| 20260507221111 | 74 | 226 | 0.0 | 0.0 | 0.00 | 0.00 | 0.39 | 92 | 1009.0 |
| 20260507220611 | 74 | 234 | 1.0 | 1.0 | 0.00 | 0.00 | 0.39 | 92 | 1009.0 |
| 20260507220112 | 74 | 226 | 2.0 | 2.0 | 0.00 | 0.00 | 0.39 | 92 | 1009.0 |
| 20260507215611 | 74 | 236 | 2.0 | 2.0 | 0.00 | 0.00 | 0.39 | 92 | 1009.0 |
| 20260507215111 | 74 | 234 | 0.0 | 1.0 | 0.00 | 0.00 | 0.39 | 92 | 1009.0 |
| 20260507214611 | 74 | 237 | 2.0 | 2.0 | 0.00 | 0.00 | 0.39 | 92 | 1009.0 |
| 20260507214111 | 74 | 221 | 1.0 | 1.0 | 0.00 | 0.00 | 0.39 | 92 | 1009.0 |
| 20260507213611 | 74 | 227 | 2.0 | 2.0 | 0.00 | 0.00 | 0.39 | 92 | 1009.0 |
| 20260507213111 | 74 | 258 | 1.0 | 2.0 | 0.00 | 0.00 | 0.39 | 92 | 1009.0 |
| 20260507212611 | 74 | 213 | 3.0 | 3.0 | 0.05 | 0.00 | 0.39 | 92 | 1009.0 |
| 20260507212112 | 74 | 265 | 2.0 | 2.0 | 0.05 | 0.00 | 0.39 | 92 | 1009.0 |
| 20260507211612 | 74 | 249 | 1.0 | 2.0 | 0.00 | 0.00 | 0.38 | 92 | 1009.0 |
| 20260507211112 | 74 | 219 | 0.0 | 1.0 | 0.00 | 0.00 | 0.38 | 92 | 1009.0 |
| 20260507210611 | 74 | 243 | 1.0 | 1.0 | 0.00 | 0.00 | 0.38 | 92 | 1009.0 |
| 20260507210112 | 74 | 214 | 0.0 | 0.0 | 0.00 | 0.00 | 0.38 | 92 | 1009.0 |
| 20260507205611 | 74 | 196 | 0.0 | 0.0 | 0.00 | 0.00 | 0.38 | 92 | 1009.0 |
| 20260507205112 | 74 | 207 | 0.0 | 0.0 | 0.00 | 0.00 | 0.38 | 92 | 1009.0 |
| 20260507204611 | 75 | 202 | 0.0 | 0.0 | 0.00 | 0.00 | 0.38 | 92 | 1009.0 |
| 20260507204112 | 74 | 208 | 1.0 | 1.0 | 0.00 | 0.00 | 0.38 | 92 | 1009.0 |
| 20260507203612 | 74 | 174 | 2.0 | 2.0 | 0.00 | 0.00 | 0.38 | 92 | 1009.0 |
| 20260507203111 | 74 | 194 | 1.0 | 2.0 | 0.00 | 0.00 | 0.38 | 92 | 1009.0 |
| 20260507202611 | 74 | 225 | 2.0 | 2.0 | 0.00 | 0.00 | 0.38 | 92 | 1009.0 |
| 20260507202112 | 74 | 164 | 4.0 | 6.0 | 0.00 | 0.00 | 0.38 | 92 | 1009.0 |
| 20260507201611 | 74 | 173 | 2.0 | 2.0 | 0.00 | 0.00 | 0.38 | 92 | 1009.0 |
| 20260507201112 | 74 | 171 | 1.0 | 2.0 | 0.00 | 0.00 | 0.38 | 92 | 1009.0 |
| 20260507200611 | 74 | 132 | 4.0 | 6.0 | 0.00 | 0.00 | 0.38 | 92 | 1009.0 |
| 20260507200112 | 74 | 129 | 3.0 | 3.0 | 0.00 | 0.00 | 0.38 | 92 | 1009.0 |
| 20260507195611 | 74 | 131 | 2.0 | 2.0 | 0.00 | 0.00 | 0.38 | 91 | 1009.0 |
| 20260507194643 | 74 | 165 | 2.0 | 2.0 | 0.00 | 0.00 | 0.38 | 91 | 1009.0 |
| 20260507194112 | 74 | 162 | 2.0 | 2.0 | 0.00 | 0.00 | 0.38 | 91 | 1009.0 |
| 20260507193613 | 74 | 221 | 1.0 | 2.0 | 0.00 | 0.00 | 0.38 | 91 | 1010.0 |
| 20260507193112 | 75 | 247 | 4.0 | 4.0 | 0.00 | 0.00 | 0.38 | 91 | 1010.0 |
| 20260507192126 | 75 | 285 | 5.0 | 7.0 | 0.07 | 0.00 | 0.38 | 91 | 1010.0 |
| 20260507191611 | 75 | 245 | 4.0 | 4.0 | 0.54 | 0.00 | 0.37 | 91 | 1010.0 |
| 20260507191112 | 75 | 239 | 5.0 | 8.0 | 0.78 | 0.00 | 0.37 | 91 | 1010.0 |
| 20260507190612 | 75 | 218 | 4.0 | 4.0 | 0.54 | 0.00 | 0.30 | 90 | 1010.0 |
| 20260507190112 | 75 | 241 | 5.0 | 7.0 | 0.71 | 0.00 | 0.24 | 90 | 1010.0 |
| 20260507185612 | 76 | 234 | 9.0 | 10.0 | 1.06 | 0.00 | 0.21 | 88 | 1010.0 |
| 20260507185111 | 77 | 207 | 5.0 | 6.0 | 0.78 | 0.00 | 0.13 | 88 | 1010.0 |
| 20260507184612 | 78 | 214 | 2.0 | 3.0 | 0.24 | 0.00 | 0.04 | 85 | 1010.0 |
| 20260507184113 | 78 | 229 | 1.0 | 1.0 | 0.00 | 0.00 | 0.00 | 83 | 1010.0 |
| 20260507183612 | 78 | 247 | 2.0 | 2.0 | 0.00 | 0.00 | 0.00 | 83 | 1010.0 |
| 20260507183112 | 78 | 198 | 2.0 | 3.0 | 0.00 | 0.00 | 0.00 | 82 | 1010.0 |
| 20260507182612 | 78 | 196 | 2.0 | 2.0 | 0.00 | 0.00 | 0.00 | 82 | 1010.0 |
| 20260507182112 | 79 | 149 | 3.0 | 3.0 | 0.00 | 0.00 | 0.00 | 82 | 1010.0 |
| 20260507181613 | 78 | 164 | 4.0 | 4.0 | 0.00 | 0.00 | 0.00 | 82 | 1010.0 |
| 20260507181112 | 79 | 139 | 2.0 | 2.0 | 0.00 | 0.00 | 0.00 | 86 | 1010.0 |
| 20260507180612 | 79 | 143 | 6.0 | 7.0 | 0.00 | 0.00 | 0.00 | 85 | 1010.0 |
| 20260507180116 | 79 | 139 | 4.0 | 4.0 | 0.00 | 0.00 | 0.00 | 84 | 1010.0 |
| 20260507175612 | 80 | 169 | 6.0 | 7.0 | 0.00 | 0.00 | 0.00 | 84 | 1010.0 |
| 20260507175112 | 81 | 168 | 7.0 | 8.0 | 0.00 | 0.00 | 0.00 | 81 | 1010.0 |
| 20260507174611 | 82 | 175 | 4.0 | 4.0 | 0.00 | 0.00 | 0.00 | 77 | 1010.0 |
| 20260507174111 | 82 | 203 | 8.0 | 9.0 | 0.00 | 0.00 | 0.00 | 75 | 1010.0 |
| 20260507173612 | 82 | 169 | 10.0 | 10.0 | 0.00 | 0.00 | 0.00 | 74 | 1010.0 |
| 20260507173112 | 82 | 199 | 9.0 | 10.0 | 0.00 | 0.00 | 0.00 | 74 | 1010.0 |
| 20260507172611 | 83 | 143 | 5.0 | 6.0 | 0.00 | 0.00 | 0.00 | 74 | 1010.0 |
| 20260507172111 | 84 | 154 | 11.0 | 13.0 | 0.00 | 0.00 | 0.00 | 73 | 1010.0 |
| 20260507171612 | 84 | 147 | 4.0 | 6.0 | 0.00 | 0.00 | 0.00 | 72 | 1010.0 |
| 20260507171112 | 84 | 125 | 6.0 | 8.0 | 0.00 | 0.00 | 0.00 | 73 | 1010.0 |
| 20260507170612 | 83 | 151 | 3.0 | 3.0 | 0.00 | 0.00 | 0.00 | 76 | 1009.0 |
| 20260507170115 | 84 | 141 | 5.0 | 6.0 | 0.00 | 0.00 | 0.00 | 78 | 1009.0 |
| 20260507165611 | 84 | 219 | 0.0 | 0.0 | 0.00 | 0.00 | 0.00 | 73 | 1009.0 |
| 20260507165112 | 84 | 228 | 0.0 | 0.0 | 0.00 | 0.00 | 0.00 | 72 | 1009.0 |
| 20260507164613 | 84 | 231 | 0.0 | 0.0 | 0.00 | 0.00 | 0.00 | 73 | 1009.0 |
| 20260507164112 | 84 | 343 | 2.0 | 2.0 | 0.00 | 0.00 | 0.00 | 73 | 1009.0 |
| 20260507163611 | 84 | 141 | 0.0 | 1.0 | 0.00 | 0.00 | 0.00 | 75 | 1009.0 |
| 20260507163114 | 84 | 112 | 1.0 | 1.0 | 0.00 | 0.00 | 0.00 | 75 | 1009.0 |
| 20260507162612 | 84 | 165 | 0.0 | 0.0 | 0.00 | 0.00 | 0.00 | 75 | 1009.0 |
| 20260507162112 | 84 | 223 | 0.0 | 0.0 | 0.00 | 0.00 | 0.00 | 75 | 1009.0 |
| 20260507161613 | 84 | 235 | 1.0 | 1.0 | 0.00 | 0.00 | 0.00 | 74 | 1009.0 |
| 20260507161112 | 84 | 245 | 1.0 | 1.0 | 0.00 | 0.00 | 0.00 | 75 | 1009.0 |
| 20260507160611 | 84 | 240 | 1.0 | 2.0 | 0.00 | 0.00 | 0.00 | 75 | 1009.0 |
| 20260507160115 | 84 | 258 | 2.0 | 2.0 | 0.00 | 0.00 | 0.00 | 75 | 1009.0 |
| 20260507155612 | 84 | 217 | 1.0 | 2.0 | 0.00 | 0.00 | 0.00 | 75 | 1009.0 |
| 20260507155111 | 84 | 255 | 2.0 | 2.0 | 0.00 | 0.00 | 0.00 | 75 | 1009.0 |
| 20260507154612 | 84 | 260 | 2.0 | 3.0 | 0.00 | 0.00 | 0.00 | 75 | 1009.0 |
| 20260507154111 | 84 | 228 | 1.0 | 2.0 | 0.00 | 0.00 | 0.00 | 75 | 1009.0 |
| 20260507153612 | 84 | 246 | 2.0 | 3.0 | 0.00 | 0.00 | 0.00 | 73 | 1008.0 |
| 20260507153112 | 84 | 239 | 2.0 | 2.0 | 0.00 | 0.00 | 0.00 | 74 | 1008.0 |
| 20260507152612 | 85 | 245 | 2.0 | 3.0 | 0.00 | 0.00 | 0.00 | 73 | 1008.0 |
| 20260507152112 | 85 | 272 | 2.0 | 2.0 | 0.00 | 0.00 | 0.00 | 71 | 1008.0 |
| 20260507151612 | 84 | 254 | 2.0 | 2.0 | 0.00 | 0.00 | 0.00 | 73 | 1008.0 |
| 20260507151112 | 85 | 247 | 1.0 | 1.0 | 0.00 | 0.00 | 0.00 | 74 | 1008.0 |
| 20260507150611 | 85 | 229 | 1.0 | 1.0 | 0.00 | 0.00 | 0.00 | 74 | 1008.0 |
| 20260507150112 | 85 | 257 | 1.0 | 1.0 | 0.00 | 0.00 | 0.00 | 74 | 1008.0 |
| 20260507145613 | 85 | 250 | 1.0 | 1.0 | 0.00 | 0.00 | 0.00 | 73 | 1008.0 |
| 20260507145114 | 85 | 295 | 2.0 | 3.0 | 0.00 | 0.00 | 0.00 | 73 | 1008.0 |
| 20260507144615 | 85 | 249 | 2.0 | 2.0 | 0.00 | 0.00 | 0.00 | 74 | 1007.0 |
| 20260507144111 | 85 | 239 | 2.0 | 2.0 | 0.00 | 0.00 | 0.00 | 75 | 1007.0 |
| 20260507143614 | 85 | 250 | 1.0 | 2.0 | 0.00 | 0.00 | 0.00 | 74 | 1007.0 |
| 20260507143112 | 85 | 235 | 3.0 | 3.0 | 0.00 | 0.00 | 0.00 | 76 | 1007.0 |
| 20260507142612 | 86 | 250 | 3.0 | 3.0 | 0.00 | 0.00 | 0.00 | 75 | 1007.0 |
| 20260507142113 | 86 | 245 | 2.0 | 2.0 | 0.00 | 0.00 | 0.00 | 72 | 1007.0 |
| 20260507141612 | 86 | 235 | 1.0 | 2.0 | 0.00 | 0.00 | 0.00 | 73 | 1007.0 |
| 20260507141111 | 85 | 221 | 2.0 | 2.0 | 0.00 | 0.00 | 0.00 | 75 | 1007.0 |
| 20260507140611 | 85 | 251 | 2.0 | 2.0 | 0.00 | 0.00 | 0.00 | 75 | 1007.0 |
| 20260507140111 | 85 | 260 | 2.0 | 3.0 | 0.00 | 0.00 | 0.00 | 76 | 1007.0 |
| 20260507135612 | 85 | 215 | 1.0 | 1.0 | 0.00 | 0.00 | 0.00 | 77 | 1007.0 |
| 20260507135112 | 86 | 267 | 2.0 | 2.0 | 0.00 | 0.00 | 0.00 | 76 | 1007.0 |
| 20260507134612 | 86 | 206 | 1.0 | 1.0 | 0.00 | 0.00 | 0.00 | 73 | 1007.0 |
| 20260507134111 | 87 | 147 | 0.0 | 0.0 | 0.00 | 0.00 | 0.00 | 72 | 1006.0 |
| 20260507133613 | 87 | 132 | 0.0 | 0.0 | 0.00 | 0.00 | 0.00 | 69 | 1006.0 |
| 20260507133111 | 87 | 132 | 0.0 | 0.0 | 0.00 | 0.00 | 0.00 | 68 | 1006.0 |
| 20260507132611 | 88 | 132 | 0.0 | 0.0 | 0.00 | 0.00 | 0.00 | 69 | 1006.0 |
| 20260507132111 | 88 | 131 | 0.0 | 0.0 | 0.00 | 0.00 | 0.00 | 67 | 1006.0 |
| 20260507131612 | 88 | 131 | 0.0 | 0.0 | 0.00 | 0.00 | 0.00 | 66 | 1006.0 |
| 20260507131111 | 88 | 124 | 0.0 | 0.0 | 0.00 | 0.00 | 0.00 | 66 | 1006.0 |
| 20260507130612 | 89 | 127 | 0.0 | 0.0 | 0.00 | 0.00 | 0.00 | 66 | 1006.0 |
| 20260507125623 | 89 | 127 | 0.0 | 0.0 | 0.00 | 0.00 | 0.00 | 66 | 1006.0 |
| 20260507125111 | 89 | 126 | 0.0 | 1.0 | 0.00 | 0.00 | 0.00 | 66 | 1006.0 |
| 20260507124618 | 89 | 81 | 2.0 | 2.0 | 0.00 | 0.00 | 0.00 | 66 | 1006.0 |
| 20260507124111 | 89 | 129 | 1.0 | 1.0 | 0.00 | 0.00 | 0.00 | 66 | 1006.0 |
| 20260507123612 | 89 | 85 | 1.0 | 2.0 | 0.00 | 0.00 | 0.00 | 65 | 1006.0 |
| 20260507123112 | 89 | 93 | 0.0 | 1.0 | 0.00 | 0.00 | 0.00 | 64 | 1006.0 |
| 20260507122612 | 90 | 125 | 1.0 | 2.0 | 0.00 | 0.00 | 0.00 | 65 | 1006.0 |
| 20260507122112 | 90 | 83 | 0.0 | 1.0 | 0.00 | 0.00 | 0.00 | 65 | 1005.0 |
| 20260507121613 | 90 | 136 | 0.0 | 1.0 | 0.00 | 0.00 | 0.00 | 65 | 1005.0 |
| 20260507121112 | 90 | 128 | 2.0 | 3.0 | 0.00 | 0.00 | 0.00 | 64 | 1005.0 |
| 20260507120613 | 91 | 113 | 3.0 | 4.0 | 0.00 | 0.00 | 0.00 | 63 | 1005.0 |
| 20260507120113 | 91 | 100 | 2.0 | 2.0 | 0.00 | 0.00 | 0.00 | 64 | 1005.0 |
| 20260507115614 | 91 | 131 | 2.0 | 3.0 | 0.00 | 0.00 | 0.00 | 63 | 1005.0 |
| 20260507115114 | 91 | 114 | 4.0 | 4.0 | 0.00 | 0.00 | 0.00 | 63 | 1005.0 |
| 20260507114613 | 91 | 114 | 3.0 | 3.0 | 0.00 | 0.00 | 0.00 | 63 | 1005.0 |
| 20260507114111 | 91 | 113 | 3.0 | 3.0 | 0.00 | 0.00 | 0.00 | 62 | 1005.0 |
| 20260507113613 | 91 | 77 | 0.0 | 1.0 | 0.00 | 0.00 | 0.00 | 62 | 1005.0 |
| 20260507113112 | 92 | 116 | 1.0 | 2.0 | 0.00 | 0.00 | 0.00 | 63 | 1005.0 |
| 20260507112611 | 92 | 131 | 4.0 | 4.0 | 0.00 | 0.00 | 0.00 | 62 | 1005.0 |
| 20260507112111 | 92 | 107 | 2.0 | 2.0 | 0.00 | 0.00 | 0.00 | 63 | 1005.0 |
| 20260507111612 | 92 | 191 | 2.0 | 2.0 | 0.00 | 0.00 | 0.00 | 64 | 1005.0 |
| 20260507111112 | 91 | 127 | 3.0 | 4.0 | 0.00 | 0.00 | 0.00 | 63 | 1005.0 |
| 20260507110611 | 92 | 128 | 3.0 | 4.0 | 0.00 | 0.00 | 0.00 | 62 | 1005.0 |
| 20260507110111 | 92 | 142 | 4.0 | 4.0 | 0.00 | 0.00 | 0.00 | 61 | 1005.0 |
| 20260507105612 | 92 | 143 | 2.0 | 2.0 | 0.00 | 0.00 | 0.00 | 63 | 1006.0 |
| 20260507105111 | 92 | 67 | 1.0 | 1.0 | 0.00 | 0.00 | 0.00 | 61 | 1006.0 |
| 20260507104612 | 91 | 88 | 2.0 | 2.0 | 0.00 | 0.00 | 0.00 | 62 | 1006.0 |
| 20260507104112 | 92 | 112 | 4.0 | 4.0 | 0.00 | 0.00 | 0.00 | 61 | 1005.0 |
| 20260507103612 | 92 | 103 | 0.0 | 0.0 | 0.00 | 0.00 | 0.00 | 61 | 1006.0 |
| 20260507103111 | 92 | 195 | 2.0 | 2.0 | 0.00 | 0.00 | 0.00 | 62 | 1006.0 |
| 20260507102613 | 92 | 140 | 2.0 | 3.0 | 0.00 | 0.00 | 0.00 | 62 | 1006.0 |
| 20260507102111 | 92 | 100 | 0.0 | 0.0 | 0.00 | 0.00 | 0.00 | 62 | 1006.0 |
| 20260507101612 | 92 | 72 | 2.0 | 2.0 | 0.00 | 0.00 | 0.00 | 61 | 1006.0 |
| 20260507101111 | 92 | 93 | 1.0 | 1.0 | 0.00 | 0.00 | 0.00 | 63 | 1006.0 |
| 20260507100612 | 92 | 84 | 1.0 | 2.0 | 0.00 | 0.00 | 0.00 | 62 | 1006.0 |
| 20260507100111 | 92 | 121 | 3.0 | 3.0 | 0.00 | 0.00 | 0.00 | 62 | 1006.0 |
| 20260507095615 | 92 | 131 | 0.0 | 0.0 | 0.00 | 0.00 | 0.00 | 60 | 1006.0 |
| 20260507095112 | 93 | 163 | 1.0 | 2.0 | 0.00 | 0.00 | 0.00 | 61 | 1006.0 |
| 20260507094611 | 92 | 191 | 0.0 | 0.0 | 0.00 | 0.00 | 0.00 | 60 | 1006.0 |
| 20260507094112 | 92 | 185 | 0.0 | 0.0 | 0.00 | 0.00 | 0.00 | 61 | 1006.0 |
| 20260507093612 | 92 | 138 | 3.0 | 3.0 | 0.00 | 0.00 | 0.00 | 62 | 1006.0 |
| 20260507093112 | 93 | 192 | 1.0 | 1.0 | 0.00 | 0.00 | 0.00 | 60 | 1006.0 |
| 20260507092611 | 93 | 198 | 0.0 | 1.0 | 0.00 | 0.00 | 0.00 | 61 | 1006.0 |
| 20260507092111 | 94 | 212 | 0.0 | 0.0 | 0.00 | 0.00 | 0.00 | 60 | 1006.0 |
| 20260507091611 | 94 | 209 | 3.0 | 3.0 | 0.00 | 0.00 | 0.00 | 60 | 1006.0 |
| 20260507091111 | 94 | 217 | 1.0 | 2.0 | 0.00 | 0.00 | 0.00 | 58 | 1006.0 |
| 20260507090612 | 95 | 175 | 3.0 | 3.0 | 0.00 | 0.00 | 0.00 | 57 | 1006.0 |
| 20260507090112 | 94 | 342 | 3.0 | 4.0 | 0.00 | 0.00 | 0.00 | 57 | 1006.0 |
| 20260507085611 | 94 | 53 | 4.0 | 4.0 | 0.00 | 0.00 | 0.00 | 61 | 1006.0 |
| 20260507085112 | 94 | 100 | 0.0 | 1.0 | 0.00 | 0.00 | 0.00 | 60 | 1006.0 |
| 20260507084613 | 93 | 50 | 2.0 | 2.0 | 0.00 | 0.00 | 0.00 | 63 | 1006.0 |
| 20260507084112 | 95 | 346 | 4.0 | 6.0 | 0.00 | 0.00 | 0.00 | 60 | 1006.0 |
| 20260507083611 | 95 | 203 | 2.0 | 3.0 | 0.00 | 0.00 | 0.00 | 61 | 1006.0 |
| 20260507083111 | 94 | 224 | 1.0 | 1.0 | 0.00 | 0.00 | 0.00 | 60 | 1006.0 |
| 20260507082612 | 94 | 235 | 1.0 | 2.0 | 0.00 | 0.00 | 0.00 | 60 | 1007.0 |
| 20260507082115 | 94 | 269 | 3.0 | 3.0 | 0.00 | 0.00 | 0.00 | 62 | 1007.0 |
| 20260507081612 | 93 | 253 | 2.0 | 2.0 | 0.00 | 0.00 | 0.00 | 61 | 1007.0 |
| 20260507081113 | 92 | 223 | 0.0 | 0.0 | 0.00 | 0.00 | 0.00 | 63 | 1007.0 |
| 20260507080611 | 91 | 261 | 3.0 | 3.0 | 0.00 | 0.00 | 0.00 | 63 | 1007.0 |
| 20260507080112 | 92 | 225 | 2.0 | 3.0 | 0.00 | 0.00 | 0.00 | 63 | 1007.0 |
| 20260507075611 | 92 | 223 | 1.0 | 1.0 | 0.00 | 0.00 | 0.00 | 63 | 1007.0 |
| 20260507075111 | 90 | 183 | 1.0 | 2.0 | 0.00 | 0.00 | 0.00 | 65 | 1008.0 |
| 20260507074611 | 90 | 76 | 1.0 | 2.0 | 0.00 | 0.00 | 0.00 | 64 | 1007.0 |
| 20260507074111 | 90 | 320 | 2.0 | 2.0 | 0.00 | 0.00 | 0.00 | 64 | 1008.0 |
| 20260507073612 | 91 | 5 | 5.0 | 7.0 | 0.00 | 0.00 | 0.00 | 65 | 1008.0 |
| 20260507073115 | 92 | 323 | 2.0 | 2.0 | 0.00 | 0.00 | 0.00 | 63 | 1008.0 |
| 20260507072611 | 91 | 198 | 0.0 | 0.0 | 0.00 | 0.00 | 0.00 | 64 | 1008.0 |
| 20260507072111 | 92 | 324 | 3.0 | 3.0 | 0.00 | 0.00 | 0.00 | 63 | 1008.0 |
| 20260507071611 | 91 | 234 | 0.0 | 1.0 | 0.00 | 0.00 | 0.00 | 62 | 1009.0 |
| 20260507071111 | 91 | 168 | 2.0 | 2.0 | 0.00 | 0.00 | 0.00 | 64 | 1008.0 |
| 20260507070611 | 92 | 201 | 0.0 | 0.0 | 0.00 | 0.00 | 0.00 | 62 | 1009.0 |
| 20260507070111 | 91 | 247 | 0.0 | 1.0 | 0.00 | 0.00 | 0.00 | 64 | 1009.0 |
| 20260507065612 | 91 | 205 | 1.0 | 2.0 | 0.00 | 0.00 | 0.00 | 60 | 1009.0 |
| 20260507065112 | 91 | 231 | 2.0 | 2.0 | 0.00 | 0.00 | 0.00 | 58 | 1009.0 |
| 20260507064611 | 91 | 234 | 2.0 | 2.0 | 0.00 | 0.00 | 0.00 | 57 | 1009.0 |
| 20260507064112 | 91 | 189 | 0.0 | 0.0 | 0.00 | 0.00 | 0.00 | 58 | 1009.0 |
| 20260507063612 | 90 | 228 | 2.0 | 3.0 | 0.00 | 0.00 | 0.00 | 63 | 1009.0 |
| 20260507063114 | 91 | 245 | 2.0 | 2.0 | 0.00 | 0.00 | 0.00 | 60 | 1010.0 |
| 20260507062611 | 89 | 204 | 0.0 | 0.0 | 0.00 | 0.00 | 0.00 | 63 | 1010.0 |
| 20260507062111 | 90 | 227 | 1.0 | 2.0 | 0.00 | 0.00 | 0.00 | 62 | 1010.0 |
| 20260507061612 | 89 | 280 | 2.0 | 3.0 | 0.00 | 0.00 | 0.00 | 65 | 1010.0 |
| 20260507061111 | 89 | 242 | 3.0 | 4.0 | 0.00 | 0.00 | 0.00 | 65 | 1010.0 |
| 20260507060612 | 89 | 212 | 0.0 | 0.0 | 0.00 | 0.00 | 0.00 | 65 | 1010.0 |
| 20260507060111 | 90 | 229 | 0.0 | 0.0 | 0.00 | 0.00 | 0.00 | 63 | 1010.0 |
| 20260507055612 | 88 | 196 | 0.0 | 1.0 | 0.00 | 0.00 | 0.00 | 65 | 1010.0 |
| 20260507055111 | 89 | 257 | 3.0 | 3.0 | 0.00 | 0.00 | 0.00 | 64 | 1010.0 |
| 20260507054614 | 88 | 260 | 2.0 | 3.0 | 0.00 | 0.00 | 0.00 | 66 | 1010.0 |
| 20260507054111 | 88 | 249 | 3.0 | 4.0 | 0.00 | 0.00 | 0.00 | 66 | 1010.0 |
| 20260507053612 | 88 | 168 | 1.0 | 1.0 | 0.00 | 0.00 | 0.00 | 67 | 1010.0 |
| 20260507053111 | 90 | 269 | 3.0 | 3.0 | 0.00 | 0.00 | 0.00 | 63 | 1010.0 |
| 20260507052613 | 89 | 196 | 0.0 | 0.0 | 0.00 | 0.00 | 0.00 | 66 | 1011.0 |
| 20260507052112 | 88 | 99 | 1.0 | 2.0 | 0.00 | 0.00 | 0.00 | 66 | 1011.0 |
| 20260507051612 | 87 | 241 | 1.0 | 2.0 | 0.00 | 0.00 | 0.00 | 69 | 1011.0 |
| 20260507051111 | 87 | 223 | 3.0 | 4.0 | 0.00 | 0.00 | 0.00 | 69 | 1010.0 |
| 20260507050612 | 89 | 208 | 2.0 | 2.0 | 0.00 | 0.00 | 0.00 | 66 | 1011.0 |
| 20260507050111 | 88 | 6 | 1.0 | 1.0 | 0.00 | 0.00 | 0.00 | 69 | 1011.0 |
| 20260507045611 | 87 | 97 | 1.0 | 2.0 | 0.00 | 0.00 | 0.00 | 69 | 1011.0 |
| 20260507045111 | 86 | 224 | 2.0 | 3.0 | 0.00 | 0.00 | 0.00 | 70 | 1011.0 |
| 20260507044611 | 87 | 236 | 3.0 | 3.0 | 0.00 | 0.00 | 0.00 | 70 | 1011.0 |
| 20260507044111 | 87 | 221 | 2.0 | 2.0 | 0.00 | 0.00 | 0.00 | 69 | 1011.0 |
| 20260507043612 | 86 | 260 | 1.0 | 2.0 | 0.00 | 0.00 | 0.00 | 72 | 1011.0 |
| 20260507043111 | 85 | 213 | 1.0 | 1.0 | 0.00 | 0.00 | 0.00 | 72 | 1011.0 |
| 20260507042612 | 86 | 199 | 3.0 | 3.0 | 0.00 | 0.00 | 0.00 | 73 | 1011.0 |
| 20260507042113 | 86 | 203 | 0.0 | 0.0 | 0.00 | 0.00 | 0.00 | 71 | 1011.0 |
| 20260507041611 | 86 | 277 | 1.0 | 2.0 | 0.00 | 0.00 | 0.00 | 72 | 1011.0 |
| 20260507041111 | 86 | 242 | 2.0 | 2.0 | 0.00 | 0.00 | 0.00 | 73 | 1011.0 |
| 20260507040612 | 87 | 351 | 3.0 | 4.0 | 0.00 | 0.00 | 0.00 | 70 | 1011.0 |
| 20260507040111 | 86 | 189 | 0.0 | 0.0 | 0.00 | 0.00 | 0.00 | 71 | 1011.0 |
| 20260507035611 | 87 | 300 | 2.0 | 2.0 | 0.00 | 0.00 | 0.00 | 69 | 1011.0 |
| 20260507035111 | 85 | 265 | 2.0 | 2.0 | 0.00 | 0.00 | 0.00 | 73 | 1011.0 |
| 20260507034612 | 86 | 254 | 2.0 | 2.0 | 0.00 | 0.00 | 0.00 | 72 | 1011.0 |
| 20260507034112 | 85 | 180 | 1.0 | 2.0 | 0.00 | 0.00 | 0.00 | 75 | 1011.0 |
| 20260507033611 | 87 | 204 | 1.0 | 1.0 | 0.00 | 0.00 | 0.00 | 73 | 1011.0 |
| 20260507033113 | 86 | 201 | 0.0 | 0.0 | 0.00 | 0.00 | 0.00 | 74 | 1011.0 |
| 20260507032613 | 85 | 195 | 0.0 | 0.0 | 0.00 | 0.00 | 0.00 | 75 | 1011.0 |
| 20260507032112 | 85 | 203 | 0.0 | 0.0 | 0.00 | 0.00 | 0.00 | 74 | 1011.0 |
| 20260507031613 | 84 | 201 | 0.0 | 0.0 | 0.00 | 0.00 | 0.00 | 76 | 1011.0 |
| 20260507031115 | 85 | 249 | 1.0 | 1.0 | 0.00 | 0.00 | 0.00 | 74 | 1011.0 |
| 20260507030611 | 84 | 136 | 0.0 | 0.0 | 0.00 | 0.00 | 0.00 | 77 | 1011.0 |
| 20260507030114 | 85 | 150 | 0.0 | 0.0 | 0.00 | 0.00 | 0.00 | 76 | 1011.0 |
| 20260507025611 | 84 | 171 | 0.0 | 0.0 | 0.00 | 0.00 | 0.00 | 77 | 1011.0 |
| 20260507025112 | 83 | 183 | 0.0 | 0.0 | 0.00 | 0.00 | 0.00 | 80 | 1011.0 |
| 20260507024612 | 83 | 234 | 0.0 | 0.0 | 0.00 | 0.00 | 0.00 | 79 | 1011.0 |
| 20260507024112 | 82 | 172 | 0.0 | 0.0 | 0.00 | 0.00 | 0.00 | 81 | 1011.0 |
| 20260507023611 | 82 | 149 | 0.0 | 1.0 | 0.00 | 0.00 | 0.00 | 83 | 1011.0 |
| 20260507023112 | 83 | 128 | 0.0 | 0.0 | 0.00 | 0.00 | 0.00 | 83 | 1011.0 |
| 20260507022614 | 82 | 154 | 0.0 | 0.0 | 0.00 | 0.00 | 0.00 | 84 | 1011.0 |
| 20260507022111 | 81 | 151 | 0.0 | 0.0 | 0.00 | 0.00 | 0.00 | 85 | 1011.0 |
| 20260507021612 | 81 | 146 | 0.0 | 1.0 | 0.00 | 0.00 | 0.00 | 86 | 1010.0 |
| 20260507021111 | 80 | 320 | 2.0 | 2.0 | 0.00 | 0.00 | 0.00 | 87 | 1011.0 |
| 20260507020612 | 80 | 277 | 1.0 | 1.0 | 0.00 | 0.00 | 0.00 | 88 | 1010.0 |
| 20260507020111 | 80 | 339 | 3.0 | 3.0 | 0.00 | 0.00 | 0.00 | 89 | 1010.0 |
| 20260507015612 | 79 | 338 | 2.0 | 2.0 | 0.00 | 0.00 | 0.00 | 90 | 1010.0 |
| 20260507015112 | 79 | 4 | 2.0 | 2.0 | 0.00 | 0.00 | 0.00 | 90 | 1010.0 |
| 20260507014615 | 79 | 176 | 0.0 | 0.0 | 0.00 | 0.00 | 0.00 | 91 | 1010.0 |
| 20260507014113 | 79 | 129 | 0.0 | 1.0 | 0.00 | 0.00 | 0.00 | 92 | 1010.0 |
| 20260507013611 | 78 | 277 | 1.0 | 2.0 | 0.00 | 0.00 | 0.00 | 93 | 1010.0 |
| 20260507013112 | 78 | 169 | 0.0 | 0.0 | 0.00 | 0.00 | 0.00 | 93 | 1010.0 |
| 20260507012613 | 78 | 176 | 0.0 | 0.0 | 0.00 | 0.00 | 0.00 | 93 | 1010.0 |
| 20260507012112 | 77 | 175 | 0.0 | 0.0 | 0.00 | 0.00 | 0.00 | 94 | 1010.0 |
| 20260507011612 | 77 | 175 | 0.0 | 0.0 | 0.00 | 0.00 | 0.00 | 94 | 1010.0 |
| 20260507011112 | 77 | 175 | 0.0 | 0.0 | 0.00 | 0.00 | 0.00 | 94 | 1010.0 |
| 20260507010611 | 77 | 175 | 0.0 | 0.0 | 0.00 | 0.00 | 0.00 | 94 | 1010.0 |
| 20260507010112 | 77 | 175 | 0.0 | 0.0 | 0.00 | 0.00 | 0.00 | 94 | 1010.0 |
| 20260507005611 | 77 | 175 | 0.0 | 0.0 | 0.00 | 0.00 | 0.00 | 94 | 1009.0 |
| 20260507005112 | 77 | 175 | 0.0 | 0.0 | 0.00 | 0.00 | 0.00 | 94 | 1010.0 |
| 20260507004612 | 77 | 174 | 1.0 | 1.0 | 0.00 | 0.00 | 0.00 | 94 | 1010.0 |
| 20260507004111 | 77 | 174 | 0.0 | 0.0 | 0.00 | 0.00 | 0.00 | 94 | 1009.0 |
| 20260507003612 | 77 | 174 | 0.0 | 0.0 | 0.00 | 0.00 | 0.00 | 94 | 1010.0 |
| 20260507003111 | 77 | 170 | 0.0 | 0.0 | 0.00 | 0.00 | 0.00 | 94 | 1009.0 |
| 20260507002611 | 77 | 168 | 0.0 | 0.0 | 0.00 | 0.00 | 0.00 | 94 | 1009.0 |
| 20260507002112 | 77 | 167 | 0.0 | 0.0 | 0.00 | 0.00 | 0.00 | 94 | 1009.0 |
| 20260507001612 | 77 | 170 | 0.0 | 0.0 | 0.00 | 0.00 | 0.00 | 94 | 1009.0 |
| 20260507001112 | 77 | 170 | 0.0 | 0.0 | 0.00 | 0.00 | 0.00 | 95 | 1009.0 |
| 20260507000611 | 77 | 170 | 0.0 | 0.0 | 0.00 | 0.00 | 0.00 | 95 | 1009.0 |
| 20260507000111 | 77 | 170 | 0.0 | 0.0 | 0.00 | 0.00 | 0.00 | 95 | 1009.0 |
| 20260506235612 | 77 | 174 | 0.0 | 0.0 | 0.00 | 0.00 | 0.00 | 95 | 1009.0 |
| 20260506235111 | 77 | 146 | 1.0 | 1.0 | 0.00 | 0.00 | 0.00 | 95 | 1009.0 |
| 20260506234612 | 77 | 176 | 0.0 | 0.0 | 0.00 | 0.00 | 0.00 | 95 | 1009.0 |
| 20260506234112 | 77 | 183 | 0.0 | 0.0 | 0.00 | 0.00 | 0.00 | 95 | 1009.0 |
| 20260506233612 | 77 | 181 | 0.0 | 0.0 | 0.00 | 0.00 | 0.00 | 95 | 1009.0 |
| 20260506233112 | 77 | 218 | 0.0 | 0.0 | 0.00 | 0.00 | 0.00 | 95 | 1008.0 |
| 20260506232612 | 77 | 218 | 0.0 | 0.0 | 0.00 | 0.00 | 0.00 | 95 | 1009.0 |
| 20260506232112 | 77 | 218 | 0.0 | 0.0 | 0.00 | 0.00 | 0.00 | 95 | 1008.0 |
| 20260506231611 | 77 | 217 | 0.0 | 0.0 | 0.00 | 0.00 | 0.00 | 95 | 1008.0 |
| 20260506231112 | 77 | 218 | 0.0 | 0.0 | 0.00 | 0.00 | 0.00 | 95 | 1009.0 |
| 20260506230615 | 77 | 219 | 1.0 | 1.0 | 0.00 | 0.00 | 0.00 | 95 | 1009.0 |
| 20260506230111 | 77 | 210 | 1.0 | 1.0 | 0.00 | 0.00 | 0.00 | 95 | 1008.0 |
| 20260506225612 | 77 | 217 | 0.0 | 0.0 | 0.00 | 0.00 | 0.00 | 95 | 1008.0 |
| 20260506225112 | 77 | 218 | 0.0 | 0.0 | 0.00 | 0.00 | 0.00 | 95 | 1008.0 |
| 20260506224611 | 76 | 218 | 0.0 | 0.0 | 0.00 | 0.00 | 0.00 | 95 | 1008.0 |
| 20260506224111 | 77 | 298 | 2.0 | 2.0 | 0.00 | 0.00 | 0.00 | 95 | 1008.0 |
| 20260506223613 | 77 | 247 | 0.0 | 0.0 | 0.00 | 0.00 | 0.00 | 95 | 1008.0 |